Location: Les Salelles
(44.4192°N, 4.1044°E)
Time: 11:11:02
(UTC+00:00)

USA 229 - Pass Details

Date: 20 January 2021
Orbit: 964 x 1248 km, 63.4° (Epoch: 26 February)

Event Time Altitude Azimuth Distance (km) Brightness Sun altitude
Rises 19:40:28 0° 322° (NW) 3,959 7.2 -32.5°
Reaches altitude 10° 19:43:06 10° 323° (NW) 3,037 6.5 -33.0°
Enters shadow 19:49:24 69° 337° (NNW) 1,262 4.0 -34.1°
